Location: Cuzcurrita-R�o Tir�n
(42.5415°N, 2.9642°W)
Time: 04:56:21
(UTC+00:00)

Cosmos 44 Rocket - Pass Details

Date: 27 February 2020
Orbit: 659 x 731 km, 65.1° (Epoch: 02 April)

Event Time Altitude Azimuth Distance (km) Brightness Sun altitude
Rises 18:57:52 0° 330° (NNW) 3,006 7.0 -11.7°
Reaches altitude 10° 19:00:13 10° 335° (NNW) 2,095 6.1 -12.2°
Maximum altitude 19:04:52 53° 53° (NE) 827 3.4 -13.0°
Enters shadow 19:08:51 14° 128° (SE) 1,844 5.0 -13.7°
